Retour au catalogue

SL-14 R/B

ActifPO
NORAD 22237·ROCKET BODY·🇷🇺 Russia

Lancé Nov 24, 1992 depuis Plesetsk Cosmodrome

Loading…

Prochains Passages (prochaines 24 heures)

TLE

FraisSource: Space-Track

Époque: Sep 14, 2026, 20:58 UTC

1 22237U 92080B   26257.87375418  .00000291  00000-0  34977-4 0  9996
2 22237  82.5114 213.6655 0017884 317.6129  42.3702 14.80419576822425

Suivez SL-14 R/B en temps réel avec AllMySat

Download on the App Store